Regional Weather Roundup
Issued by NWS

Home | Current Version | Previous Version | Graphics & Text | Print | Product List | Glossary On
Versions: 1 2 3 4 5 6 7 8 9 10 11 12 13 14 15 16 17 18 19 20 21 22 23 24 25 26 27 28 29 30 31 32 33 34 35 36 37 38 39 40 41 42 43 44 45 46 47 48 49 50
000
ASUS44 KMEG 041210
RWRTN
TENNESSEE HOURLY STATE WEATHER ROUNDUP
NATIONAL WEATHER SERVICE MEMPHIS TN
700 AM CDT WED MAY 04 2016

TNZ002-004-019-021-049-052-054-088>092-041300-
WEST TENNESSEE

CITY           SKY/WX    TMP DP  RH WIND       PRES   REMARKS
MEMPHIS INTL   PTCLDY    53  49  86 SW5       29.90S
NWS MEMPHIS      N/A     49 N/A N/A MISG        N/A
JACKSON        SUNNY     51  48  89 SW5       29.88S
DYERSBURG      MOSUNNY   52  48  87 SW7       29.86S
UNION CITY     SUNNY     52  52 100 SW6       29.83F
LEXINGTON      SUNNY     45  45 100 CALM      29.86S
$$

TNZ008-025-027-028-033-062-065-066-041300-
NORTH MIDDLE TENNESSEE

CITY           SKY/WX    TMP DP  RH WIND       PRES   REMARKS
NASHVILLE      SUNNY     49  46  90 CALM      29.85F
CLARKSVILLE    SUNNY     50  47  89 SW3       29.83F
SMYRNA         SUNNY     48  47  97 S5        29.87S
COOKEVILLE     SUNNY     48  48 100 CALM      29.84S
CROSSVILLE     SUNNY     46  44  93 W6        29.85S
$$

TNZ061-075-076-078-094-096-097-041300-
SOUTH MIDDLE TENNESSEE

CITY           SKY/WX    TMP DP  RH WIND       PRES   REMARKS
FAYETTEVILLE   SUNNY     50  48  93 CALM      29.88S
TULLAHOMA      SUNNY     48  48 100 W3        29.87S
WINCHESTER     SUNNY     46  46 100 CALM      29.88S
MCMINNVILLE    SUNNY     48  48 100 CALM      29.86S
COLUMBIA       SUNNY    N/A N/A N/A CALM      29.85F
SHELBYVILLE    SUNNY     46  46 100 CALM      29.88S
$$

TNZ017-018-042-046-047-041300-
NORTHEAST TENNESSEE

CITY           SKY/WX    TMP DP  RH WIND       PRES   REMARKS
TRI CITIES     CLOUDY    54  46  74 SW7       29.80S
$$

TNZ012-013-036-069-073-074-041300-
CENTRAL EAST TENNESSEE

CITY           SKY/WX    TMP DP  RH WIND       PRES   REMARKS
KNOXVILLE      MOSUNNY   52  47  83 SW7       29.84R
OAK RIDGE      SUNNY     53  46  77 CALM      29.85S
GATLINBURG     SUNNY     52  46  82 SW6       29.83S
MORRISTOWN     SUNNY     54  46  76 W8        29.82R
$$

TNZ083-085-099-041300-
SOUTHEAST TENNESSEE

CITY           SKY/WX    TMP DP  RH WIND       PRES   REMARKS
CHATTANOOGA    MOSUNNY   55  46  71 W5        29.86S
$$

SKY/WX REPORTED AS FAIR MEANS FEW OR NO CLOUDS BELOW
12 THOUSAND FEET.





USA.gov is the U.S. government's official web portal to all federal, state and local government web resources and services.